Regional Weather Roundup
Issued by NWS

Home | Current Version | Previous Version | Graphics & Text | Print | Product List | Glossary On
Versions: 1 2 3 4 5 6 7 8 9 10 11 12 13 14 15 16 17 18 19 20 21 22 23 24 25 26 27 28 29 30 31 32 33 34 35 36 37 38 39 40 41 42 43 44 45 46 47 48
000
ASUS43 KDMX 031407
RWRIA

WEATHER ROUNDUP FOR IOWA
NATIONAL WEATHER SERVICE DES MOINES IA
900 AM CDT WED JUN 03 2015

NOTE: "FAIR" INDICATES FEW OR NO CLOUDS BELOW 12,000 FEET WITH NO
SIGNIFICANT WEATHER AND/OR OBSTRUCTIONS TO VISIBILITY.

* - THESE STATIONS ARE NOT NWS STATIONS...THUS NOT UNDER NWS
QUALITY CONTROL.  THEY ALSO DO NOT REPORT WEATHER SUCH
AS PRECIPITATION OR FOG.

IAZ001>003-012>014-020>022-031>034-043>046-031500-
   NORTHWEST IOWA

CITY           SKY/WX    TMP DP  RH WIND       PRES   REMARKS
CARROLL *      MOSUNNY   66  63  88 SW13      29.90R
CHEROKEE *     CLOUDY    64  63  94 SW10G18   29.83F
DENISON *      PTSUNNY   64  64 100 S6        29.85F
LE MARS *      SUNNY     66  63  88 SW10      29.83F
ORANGE CITY *  MOSUNNY   64  61  88 SW10      29.83R
SHELDON *      CLOUDY    64  64 100 SW14      29.82S
SIOUX CITY     CLOUDY    68  61  78 W5        29.82F
SPENCER        CLOUDY    64  61  90 S12       29.84R
STORM LAKE *   PTSUNNY   66  61  82 W12       29.86R
$$

IAZ055>058-069>071-079>083-090>094-031500-
   SOUTHWEST IOWA

CITY           SKY/WX    TMP DP  RH WIND       PRES   REMARKS
ATLANTIC *     SUNNY     64  63  94 SW15      29.92R
AUDUBON *      MOSUNNY   64  61  88 SW7       29.92R
CLARINDA *     CLOUDY    64  64 100 S12       29.93F
COUNCIL BLFS * MOSUNNY   64  64 100 SW14      29.91S
CRESTON *      CLOUDY    61  61 100 S15       29.94F FOG
HARLAN  *      SUNNY     66  66 100 SW17G24   29.93R
LAMONI         RAIN      63  59  87 S6        29.98F FOG
RED OAK *      CLOUDY    64  63  94 SW12      29.93R
SHENANDOAH *   PTSUNNY   66  64  94 SW8       29.95R
$$

IAZ047>049-059>061-072>074-084-031500-
   CENTRAL IOWA

CITY           SKY/WX    TMP DP  RH WIND       PRES   REMARKS
AMES           LGT RAIN  60  58  92 S14       29.90F FOG
ANKENY *       SUNNY     61  59  94 S12       29.92F
CHARITON *     LGT RAIN  61  61 100 SW13      29.97F
DES MOINES     LGT RAIN  62  58  86 S15       29.93S FOG
GRINNELL*      CLOUDY    63  57  82 SE14      29.97F
KNOXVILLE *    CLOUDY    61  57  88 S5        29.96S
MARSHALLTOWN   CLOUDY    63  56  78 S21       29.92F
PELLA *        LGT RAIN  63  61  94 S8        29.98F
PERRY *          N/A     61  59  94 SE18      29.87F
$$

IAZ004>006-015-016-023>025-035-036-031500-
   NORTH CENTRAL IOWA

CITY           SKY/WX    TMP DP  RH WIND       PRES   REMARKS
ALGONA *       PTSUNNY   63  61  94 S21G28    29.87R
CLARION *      CLOUDY    61  57  88 SE24G32   29.82F
ESTHERVILLE    CLOUDY    61  58  90 S18G25    29.84R
FORT DODGE *   CLOUDY    63  57  82 S12G18    29.91R
MASON CITY     CLOUDY    62  57  83 SE18      29.88F
FOREST CITY *  MOSUNNY   59  57  94 E14       29.85F
IOWA FALLS *   LGT RAIN  61  57  88 SE20      29.90F
$$

IAZ007>011-017>019-026>030-037>042-050>054-066-031500-
   NORTHEAST IOWA

CITY           SKY/WX    TMP DP  RH WIND       PRES   REMARKS
CEDAR RAPIDS   PTSUNNY   65  59  81 S12       29.99R
CHARLES CITY * CLOUDY    64  59  82 S15G23    29.94S
CLINTON *      SUNNY     66  57  72 SE10      30.04S
DECORAH *      PTSUNNY   64  55  72 S10G18    29.97R
DUBUQUE        SUNNY     66  57  72 S14       30.01S
MONTICELLO *   SUNNY     68  59  73 SE15      30.00R
OELWEIN *      CLOUDY    64  57  77 S15       29.98S
WATERLOO       CLOUDY    64  56  75 S15G22    29.97R
$$

IAZ064-065-067-068-078-031500-
   EAST CENTRAL IOWA

CITY           SKY/WX    TMP DP  RH WIND       PRES   REMARKS
DAVENPORT      SUNNY     68  56  65 S12       30.02S
IOWA CITY      MOSUNNY   66  59  78 S6        30.01R
MT. PLEASANT * MOSUNNY   66  57  72 S14       30.02R
MUSCATINE *    SUNNY     68  59  73 S9G16     30.01R
QUAD CITIES    SUNNY     67  58  72 S8        30.01F
$$

IAZ062-063-075>077-085>089-095>099-031500-
   SOUTHEAST IOWA

CITY           SKY/WX    TMP DP  RH WIND       PRES   REMARKS
BURLINGTON     SUNNY     65  59  81 S10       30.01S
FAIRFIELD *    MOSUNNY   64  57  77 S15       30.01R
FORT MADISON * SUNNY     64  59  82 SE8       30.02R
KEOKUK *       MOSUNNY   66  59  77 S13       30.01R
OSKALOOSA *    CLOUDY    64  57  77 SW14      30.02R
CENTERVILLE *  CLOUDY    61  61 100 SW3       30.03R
OTTUMWA        CLOUDY    64  57  78 S10       29.99R
WASHINGTON *   SUNNY     66  59  77 S14       30.02R
$$

ABBREVIATIONS USED IN REMARKS
   TC - TEMPERATURES IN CELSIUS
  WCI - WIND CHILL INDEX
   HX - HEAT INDEX
  VSB - VISIBILITY
$$



USA.gov is the U.S. government's official web portal to all federal, state and local government web resources and services.